EN

Hourly Weather London

Today, 8 March, Monday

Time Temperature Precipitation Wind Pressure Humidity
00:00 +3°C° 0 mm 1 mps 767 mmHg 74%
01:00 +3°C° 0 mm 1 mps 767 mmHg 75%
02:00 +3°C° 0 mm 1 mps 767 mmHg 76%
03:00 +3°C° 0 mm 1 mps 766 mmHg 77%
04:00 +3°C° 0 mm 1 mps 766 mmHg 78%
05:00 +3°C° 0 mm 1 mps 766 mmHg 80%
06:00 +3°C° 0 mm 1 mps 766 mmHg 81%
07:00 +4°C° 0 mm 1 mps 767 mmHg 79%
08:00 +4°C° 0 mm 1 mps 767 mmHg 76%
09:00 +5°C° 0 mm 1 mps 767 mmHg 74%
10:00 +6°C° 0 mm 1 mps 767 mmHg 71%
11:00 +7°C° 0 mm 1 mps 767 mmHg 68%
12:00 +7°C° 0 mm 2 mps 766 mmHg 65%
13:00 +8°C° 0 mm 2 mps 766 mmHg 64%
14:00 +8°C° 0 mm 2 mps 766 mmHg 63%
15:00 +9°C° 0 mm 2 mps 766 mmHg 62%
16:00 +8°C° 0 mm 2 mps 765 mmHg 67%
17:00 +8°C° 0 mm 1 mps 765 mmHg 71%
18:00 +7°C° 0 mm 1 mps 765 mmHg 76%
19:00 +6°C° 0 mm 1 mps 765 mmHg 78%
20:00 +6°C° 0 mm 1 mps 765 mmHg 80%
21:00 +6°C° 0 mm 1 mps 765 mmHg 83%
22:00 +4°C° 0 mm 2 mps 765 mmHg 84%
23:00 +4°C° 0 mm 2 mps 765 mmHg 85%

Tomorrow, 9 March, Tuesday

Time Temperature Precipitation Wind Pressure Humidity
00:00 +3°C° 0 mm 2 mps 765 mmHg 86%
01:00 +3°C° 0 mm 2 mps 765 mmHg 86%
02:00 +3°C° 0 mm 2 mps 764 mmHg 86%
03:00 +3°C° 0 mm 2 mps 764 mmHg 87%
04:00 +2°C° 0 mm 2 mps 764 mmHg 87%
05:00 +2°C° 0 mm 2 mps 764 mmHg 88%
06:00 +2°C° 0 mm 2 mps 764 mmHg 88%
07:00 +3°C° 0 mm 2 mps 764 mmHg 83%
08:00 +4°C° 0 mm 2 mps 764 mmHg 78%
09:00 +4°C° 0 mm 3 mps 764 mmHg 73%
10:00 +5°C° 0 mm 3 mps 764 mmHg 68%
11:00 +8°C° 0 mm 3 mps 764 mmHg 64%
12:00 +9°C° 0 mm 3 mps 764 mmHg 59%
13:00 +10°C° 0 mm 3 mps 763 mmHg 58%
14:00 +10°C° 0 mm 4 mps 763 mmHg 56%
15:00 +11°C° 0 mm 4 mps 762 mmHg 55%
16:00 +8°C° 0 mm 4 mps 762 mmHg 61%
17:00 +8°C° 0 mm 3 mps 762 mmHg 67%
18:00 +7°C° 0 mm 3 mps 762 mmHg 72%
19:00 +5°C° 0 mm 3 mps 762 mmHg 75%
20:00 +5°C° 0 mm 4 mps 762 mmHg 79%
21:00 +4°C° 0 mm 4 mps 762 mmHg 82%
22:00 +4°C° 0 mm 4 mps 761 mmHg 83%
23:00 +4°C° 0 mm 4 mps 761 mmHg 83%

Day after tomorrow, 10 March, Wednesday

Time Temperature Precipitation Wind Pressure Humidity
00:00 +4°C° 0 mm 4 mps 761 mmHg 84%
01:00 +3°C° 0 mm 5 mps 760 mmHg 84%
02:00 +5°C° 0 mm 5 mps 760 mmHg 83%
03:00 +4°C° 0 mm 6 mps 759 mmHg 82%
04:00 +4°C° 0 mm 6 mps 759 mmHg 80%
05:00 +4°C° 0 mm 6 mps 758 mmHg 78%
06:00 +4°C° 0 mm 6 mps 758 mmHg 76%
07:00 +4°C° 0.4 mm 7 mps 758 mmHg 78%
08:00 +4°C° 0.4 mm 7 mps 757 mmHg 81%
09:00 +4°C° 0.4 mm 7 mps 757 mmHg 84%
10:00 +5°C° 0.7 mm 8 mps 757 mmHg 85%
11:00 +5°C° 0.7 mm 8 mps 756 mmHg 86%
12:00 +5°C° 0.7 mm 9 mps 756 mmHg 86%
13:00 +5°C° 0.3 mm 9 mps 755 mmHg 87%
14:00 +6°C° 0.3 mm 9 mps 754 mmHg 88%
15:00 +6°C° 0.3 mm 9 mps 753 mmHg 89%
16:00 +6°C° 0.3 mm 9 mps 752 mmHg 89%
17:00 +7°C° 0.3 mm 9 mps 752 mmHg 90%
18:00 +7°C° 0.3 mm 9 mps 751 mmHg 91%
19:00 +8°C° 0 mm 9 mps 750 mmHg 91%
20:00 +10°C° 0 mm 9 mps 749 mmHg 90%
21:00 +10°C° 0 mm 9 mps 749 mmHg 90%
22:00 +9°C° 0.2 mm 10 mps 748 mmHg 89%
23:00 +11°C° 0.2 mm 10 mps 747 mmHg 89%

11 March, Thursday

Time Temperature Precipitation Wind Pressure Humidity
00:00 +11°C° 0.2 mm 10 mps 746 mmHg 88%
01:00 +9°C° 0.2 mm 10 mps 746 mmHg 84%
02:00 +9°C° 0.2 mm 10 mps 746 mmHg 80%
03:00 +8°C° 0.2 mm 10 mps 745 mmHg 75%
04:00 +8°C° 0 mm 10 mps 745 mmHg 74%
05:00 +7°C° 0 mm 11 mps 745 mmHg 73%
06:00 +6°C° 0 mm 11 mps 745 mmHg 71%
07:00 +6°C° 0.1 mm 11 mps 745 mmHg 71%
08:00 +7°C° 0.1 mm 11 mps 746 mmHg 71%
09:00 +7°C° 0.1 mm 12 mps 746 mmHg 71%
10:00 +7°C° 0.1 mm 11 mps 747 mmHg 67%
11:00 +8°C° 0.1 mm 11 mps 747 mmHg 63%
12:00 +8°C° 0.1 mm 11 mps 748 mmHg 59%
13:00 +8°C° 0.1 mm 11 mps 748 mmHg 58%
14:00 +8°C° 0.1 mm 11 mps 748 mmHg 57%
15:00 +8°C° 0.1 mm 10 mps 749 mmHg 56%
16:00 +7°C° 0.1 mm 10 mps 749 mmHg 59%
17:00 +6°C° 0.1 mm 9 mps 750 mmHg 63%
18:00 +5°C° 0.1 mm 8 mps 750 mmHg 66%
19:00 +5°C° 0 mm 7 mps 751 mmHg 67%
20:00 +4°C° 0 mm 7 mps 752 mmHg 68%
21:00 +4°C° 0 mm 7 mps 753 mmHg 69%
22:00 +3°C° 0 mm 6 mps 753 mmHg 70%
23:00 +3°C° 0 mm 6 mps 753 mmHg 71%

12 March, Friday

Time Temperature Precipitation Wind Pressure Humidity
00:00 +3°C° 0 mm 6 mps 753 mmHg 72%
01:00 +3°C° 0 mm 6 mps 753 mmHg 73%
02:00 +3°C° 0 mm 6 mps 753 mmHg 74%
03:00 +3°C° 0 mm 6 mps 753 mmHg 75%
04:00 +3°C° 0 mm 6 mps 753 mmHg 75%
05:00 +3°C° 0 mm 6 mps 753 mmHg 75%
06:00 +3°C° 0 mm 6 mps 753 mmHg 75%
07:00 +4°C° 0 mm 7 mps 752 mmHg 73%
08:00 +5°C° 0 mm 7 mps 752 mmHg 71%
09:00 +6°C° 0 mm 8 mps 752 mmHg 70%
10:00 +6°C° 0.4 mm 8 mps 752 mmHg 73%
11:00 +5°C° 0.4 mm 8 mps 752 mmHg 77%
12:00 +5°C° 0.4 mm 8 mps 751 mmHg 81%
13:00 +6°C° 0.2 mm 8 mps 751 mmHg 75%
14:00 +6°C° 0.2 mm 8 mps 751 mmHg 70%
15:00 +7°C° 0.2 mm 8 mps 750 mmHg 65%
16:00 +6°C° 0.2 mm 8 mps 750 mmHg 68%
17:00 +5°C° 0.2 mm 7 mps 750 mmHg 71%
18:00 +4°C° 0.2 mm 7 mps 751 mmHg 74%
19:00 +4°C° 0 mm 6 mps 751 mmHg 74%
20:00 +3°C° 0 mm 6 mps 751 mmHg 75%
21:00 +3°C° 0 mm 6 mps 751 mmHg 76%
22:00 +3°C° 0 mm 6 mps 752 mmHg 77%
23:00 +3°C° 0 mm 5 mps 752 mmHg 79%

13 March, Saturday

Time Temperature Precipitation Wind Pressure Humidity
00:00 +2°C° 0 mm 5 mps 752 mmHg 80%
01:00 +2°C° 0 mm 5 mps 752 mmHg 82%
02:00 +2°C° 0 mm 5 mps 752 mmHg 83%
03:00 +2°C° 0 mm 5 mps 752 mmHg 85%
04:00 +3°C° 0 mm 4 mps 752 mmHg 86%
05:00 +3°C° 0 mm 4 mps 752 mmHg 86%
06:00 +3°C° 0 mm 4 mps 753 mmHg 87%
07:00 +3°C° 0 mm 5 mps 753 mmHg 84%
08:00 +5°C° 0 mm 5 mps 753 mmHg 81%
09:00 +5°C° 0 mm 6 mps 753 mmHg 78%
10:00 +5°C° 0.1 mm 6 mps 754 mmHg 79%
11:00 +7°C° 0.1 mm 6 mps 754 mmHg 80%
12:00 +7°C° 0.1 mm 6 mps 754 mmHg 81%
13:00 +7°C° 0.1 mm 6 mps 754 mmHg 79%
14:00 +8°C° 0.1 mm 6 mps 753 mmHg 77%
15:00 +9°C° 0.1 mm 7 mps 753 mmHg 75%
16:00 +8°C° 0 mm 6 mps 753 mmHg 76%
17:00 +8°C° 0 mm 6 mps 753 mmHg 78%
18:00 +8°C° 0 mm 6 mps 753 mmHg 80%
19:00 +8°C° 0 mm 6 mps 754 mmHg 81%
20:00 +8°C° 0 mm 7 mps 754 mmHg 82%
21:00 +8°C° 0 mm 7 mps 754 mmHg 83%
22:00 +8°C° 0 mm 7 mps 754 mmHg 83%
23:00 +8°C° 0 mm 7 mps 754 mmHg 83%
Show more